Location: Leipzig
(51.3397°N, 12.3731°E)
Time: 18:54:33
(UTC+01:00)

ARIANE 6 FM1 Upper Stage - Pass Details

Date: 16 December 2025
Orbit: 522 x 610 km, 62.0° (Epoch: 19 January)

Event Time Altitude Azimuth Distance (km) Brightness Sun altitude
Rises 05:55:19 0° 196° (SSW) 2,687 6.1 -19.6°
Reaches altitude 10° 05:57:44 10° 185° (S) 1,786 5.3 -19.3°
Maximum altitude 06:01:12 29° 125° (SE) 999 4.6 -18.8°
Drops below altitude 10° 06:04:38 10° 65° (ENE) 1,772 5.9 -18.2°
Sets 06:07:01 0° 54° (NE) 2,660 6.7 -17.9°
